Location: Columbia
(38.9520°N, 92.3340°W)
Time: 14:53:37
(UTC-06:00)

Iridium 22 - Visible Passes

Search period start: 01 March 2015 00:00
Search period end: 11 March 2015 01:00
Orbit: 776 x 779 km, 86.4° (Epoch: 01 March)

Date Brightness Start Highest point End Pass type
(mag) Time Alt. Az. Time Alt. Az. Time Alt. Az.
01 Mar 9.0 04:36:12 10° E 04:37:04 11° ENE 04:38:19 10° ENE visible
01 Mar 5.5 06:11:58 10° S 06:17:10 79° W 06:22:26 10° N visible
01 Mar 7.6 18:24:10 10° NNW 18:28:51 34° W 18:33:27 10° SSW visible
02 Mar 6.4 05:38:38 10° SSE 05:43:42 55° E 05:48:48 10° NNE visible
03 Mar 7.6 05:05:54 10° SE 05:10:18 29° E 05:14:49 10° NNE visible
03 Mar 8.9 18:59:52 10° NW 19:02:07 12° W 19:04:04 10° WSW visible
04 Mar 8.5 04:34:02 10° ESE 04:37:00 16° E 04:40:12 10° NE visible
04 Mar 5.7 06:12:13 10° SSW 06:17:18 54° W 06:22:26 10° N visible
04 Mar 8.4 18:24:43 10° NNW 18:28:51 23° W 18:32:50 10° SW visible
05 Mar 5.7 05:38:34 10° S 05:43:45 81° E 05:49:00 10° N visible
06 Mar 6.8 05:05:27 10° SSE 05:10:18 43° E 05:15:14 10° NNE visible
07 Mar 7.9 04:33:00 10° SE 04:36:57 23° E 04:41:04 10° NNE visible
08 Mar 8.7 05:01:48 10° E 05:03:41 12° E 05:05:53 10° NE visible
08 Mar 5.5 06:38:40 10° S 06:43:51 70° W 06:49:04 10° N visible
09 Mar 6.0 06:05:14 10° S 06:10:20 63° E 06:15:31 10° N visible
10 Mar 7.2 05:32:21 10° SSE 05:36:56 33° E 05:41:37 10° NNE visible
